Change the Weather History Date:

Wednesday, January 30, 2013

  Actual Average Record
Temperature  
Mean Temperature 45 °F -  
Max Temperature 59 °F 31 °F 59 °F (2013)
Min Temperature 31 °F 15 °F -4 °F (1977)
Degree Days  
Heating Degree Days 20    
Moisture  
Dew Point 44 °F    
Average Humidity 99    
Maximum Humidity 100    
Minimum Humidity 91    
Precipitation  
Precipitation 0.13 in - - ()
Snow  
Snow 0.00 in - - ()
Snow Depth 3.00 in    
Sea Level Pressure  
Sea Level Pressure 29.75 in    
Wind  
Wind Speed 4 mph (SSE)    
Max Wind Speed 15 mph    
Max Gust Speed 24 mph    
Visibility 3 miles    
Events Fog , Rain    
Averages and records for this station are not official NWS values.
T = Trace of Precipitation, MM = Missing Value Source: NWS Daily Summary

Daily Weather History Graph

Daily Weather History Graph

Search for Another Location

Airport or City:

Trip Planner

Search our weather history database for the weather conditions in past years. The results will help you decide how hot, cold, wet, or windy it might be!

Date:

Astronomy

Jan. 30, 2013 Rise Set
Actual Time 7:00 AM EST 4:53 PM EST
Civil Twilight 6:30 AM EST 5:23 PM EST
Nautical Twilight 5:55 AM EST 5:57 PM EST
Astronomical Twilight 5:22 AM EST 6:31 PM EST
Moon 8:56 PM EST (1/30) 8:19 AM EST (1/30)
Length of Visible Light 10h 53m
Length of Day
9h 53m
Waning Gibbous, 88% of the Moon is Illuminated
Jan 30
Waning Gibbous
Feb 3
Last Quarter
Feb 10
New
Feb 17
First Quarter
Feb 25
Full

Hourly Weather History & Observations

Time (EST) Temp. Windchill Dew Point Humidity Pressure Visibility Wind Dir Wind Speed Gust Speed Precip Events Conditions
12:55 AM 31.6 °F - 31.5 °F 99% 30.14 in 1.0 mi Calm Calm - 0.00 in   Light Freezing Rain
1:25 AM 32.0 °F 28.7 °F 32.0 °F 100% 30.12 in 1.2 mi SSE 3.5 mph - N/A Rain Light Rain
1:55 AM 31.8 °F - 31.6 °F 99% 30.12 in 1.2 mi Calm Calm - 0.04 in Rain Light Freezing Rain
2:55 AM 32.2 °F - 32.0 °F 99% 30.09 in 1.2 mi Calm Calm - 0.04 in Rain Light Rain
3:55 AM 33.4 °F 30.4 °F 33.3 °F 99% 30.04 in 0.8 mi ESE 3.5 mph - 0.03 in   Light Drizzle
4:55 AM 35.6 °F 30.7 °F 35.2 °F 99% 30.03 in 0.5 mi SSE 5.8 mph - 0.00 in Fog Fog
5:55 AM 36.9 °F 31.4 °F 36.5 °F 99% 30.00 in 2.0 mi SSE 6.9 mph - 0.00 in   Light Drizzle
6:55 AM 37.4 °F 31.4 °F 37.2 °F 99% 29.98 in 1.0 mi South 8.1 mph - 0.00 in   Light Drizzle
7:20 AM 37.4 °F 32.1 °F 37.4 °F 100% 29.96 in 0.5 mi SSE 6.9 mph - N/A Fog Light Drizzle
7:55 AM 37.4 °F 32.1 °F 37.2 °F 99% 29.94 in 0.4 mi SSE 6.9 mph - 0.00 in Fog Light Drizzle
8:42 AM 37.4 °F 33.8 °F 37.4 °F 100% 29.91 in 0.2 mi SE 4.6 mph - N/A Fog Light Drizzle
8:55 AM 37.9 °F 34.4 °F 37.8 °F 99% 29.91 in 0.2 mi ESE 4.6 mph - 0.00 in Fog Light Drizzle
9:49 AM 39.2 °F - 37.4 °F 93% 29.87 in 0.1 mi Calm Calm - N/A Fog Light Drizzle
9:55 AM 38.5 °F 36.1 °F 38.3 °F 99% 29.86 in 0.1 mi ESE 3.5 mph - 0.00 in Fog Light Drizzle
10:27 AM 39.2 °F - 39.2 °F 100% 29.84 in 0.1 mi Calm Calm - N/A Fog Fog
10:55 AM 39.4 °F - 39.0 °F 99% 29.81 in 0.1 mi Calm Calm - 0.00 in Fog Fog
11:55 AM 39.2 °F - 38.8 °F 99% 29.76 in 0.1 mi Calm Calm - N/A Fog Fog
12:55 PM 37.0 °F 34.5 °F 36.9 °F 99% 29.72 in 0.1 mi WNW 3.5 mph - N/A Fog Fog
1:55 PM 40.6 °F - 40.3 °F 99% 29.66 in 0.1 mi Calm Calm - N/A Fog Fog
2:55 PM 41.2 °F - 41.2 °F 100% 29.62 in 0.1 mi Calm Calm - N/A Fog Fog
3:23 PM 42.8 °F 39.3 °F 42.8 °F 100% 29.60 in 0.5 mi SE 5.8 mph - N/A Fog Fog
3:34 PM 50.0 °F - 50.0 °F 100% 29.60 in 1.0 mi ESE 6.9 mph - N/A   Overcast
3:44 PM 50.0 °F - 50.0 °F 100% 29.59 in 1.0 mi SSE 5.8 mph - N/A   Overcast
3:55 PM 50.2 °F - 50.2 °F 100% 29.59 in 3.0 mi SSE 8.1 mph - N/A   Overcast
4:55 PM 49.8 °F - 49.8 °F 100% 29.60 in 3.0 mi SSE 3.5 mph - N/A   Overcast
5:17 PM 50.0 °F - 50.0 °F 100% 29.60 in 3.0 mi SSE 5.8 mph - N/A Rain Light Rain Showers
5:37 PM 51.8 °F - 51.8 °F 100% 29.58 in 6.0 mi South 8.1 mph - N/A   Overcast
5:55 PM 55.0 °F - 54.9 °F 99% 29.57 in 10.0 mi South 9.2 mph - 0.00 in   Overcast
6:55 PM 57.4 °F - 57.4 °F 100% 29.55 in 10.0 mi South 13.8 mph 24.2 mph N/A   Overcast
7:55 PM 58.1 °F - 58.1 °F 100% 29.53 in 7.0 mi South 11.5 mph 20.7 mph N/A   Overcast
8:13 PM 59.0 °F - 59.0 °F 100% 29.52 in 7.0 mi SSW 11.5 mph - N/A   Overcast
8:55 PM 57.7 °F - 57.7 °F 100% 29.51 in 7.0 mi South 9.2 mph - N/A   Overcast
9:55 PM 57.7 °F - 57.7 °F 100% 29.47 in 10.0 mi SSW 12.7 mph - N/A   Overcast
10:55 PM 59.2 °F - 56.7 °F 91% 29.47 in 10.0 mi SSW 13.8 mph 23.0 mph N/A   Overcast
11:03 PM 59.0 °F - 57.2 °F 94% 29.46 in 7.0 mi SSW 15.0 mph 23.0 mph N/A Rain Light Rain Showers
11:55 PM 57.9 °F - 57.6 °F 99% 29.44 in 5.0 mi SSW 13.8 mph 20.7 mph 0.02 in Rain Light Rain Showers